STARLINK-11486 [DTC] (62467 NORAD) Tracking and Keplerian Element Data

This shows tracking and keplerian element data for the satellite.

Feedback or suggestion? Click here.




ElementValue
Catalog62467
NameSTARLINK-11486 [DTC]
Epoch Orbit671
Epoch Day35.20196406
Epoch Year2025
RAAN106.3485
Inclination43.003
Eccentricity0.0002292
Argument of Perigee239.5585
Mean Anonmoly120.5058
Mean Motion15.77837862
Decay Rate-1.947E-05
L11 62467U 24254F 25035.20196406 -.00001947 00000+0 -83230-5 0 9998
L22 62467 43.0030 106.3485 0002292 239.5585 120.5058 15.77837862 6715



Live tracking and technical data element details for STARLINK-11486 [DTC] (NORAD 62467). STARLINK-11486 [DTC] can be tracked NOW for your location showing map with azimuth and elevation plus other details from your city location.







IsCatalogInMostPopularTable: catalog: 62467, numindb: 26
Update: records affected: 1



GetName: 62467 STARLINK-11486 [DTC]

Hit Count: updated at: Sat, 24 May 2025 16:41:38 GMT